This is the latest recevied weather packets stored in our database for station/object KB7STN. If no packets are shown the sender has not sent any weather packets the latest 10 day(s).
| Time | Temp. | Humidity | Pressure | Rain* | Wind** | Luminosity | Snow |
|---|---|---|---|---|---|---|---|
| 1788073296 | 17.78° C | 66% | 1019.9 hPa | 0 mm | - | - | - |
| 1788072996 | 17.78° C | 67% | 1020.1 hPa | 0 mm | - | - | - |
| 1788072696 | 17.78° C | 70% | 1020.6 hPa | 0 mm | - | - | - |
| 1788072396 | 17.22° C | 72% | 1020.6 hPa | 0 mm | - | - | - |
| 1788072096 | 17.22° C | 76% | 1020.4 hPa | 0.25 mm | - | - | - |
| 1788071796 | 17.22° C | 81% | 1020.4 hPa | 0.25 mm | - | - | - |
| 1788071496 | 17.22° C | 81% | 1020.5 hPa | 0.25 mm | - | - | - |
| 1788071196 | 16.67° C | 79% | 1020.9 hPa | 0.25 mm | - | - | - |
| 1788070896 | 16.67° C | 77% | 1020.4 hPa | 0.25 mm | - | - | - |
| 1788070596 | 16.67° C | 76% | 1020.4 hPa | 0.25 mm | - | - | - |
| 1788070296 | 17.22° C | 76% | 1021.1 hPa | 0.25 mm | - | - | - |
| 1788069996 | 17.22° C | 76% | 1020.5 hPa | 0.25 mm | - | - | - |
| 1788069696 | 17.22° C | 75% | 1020.1 hPa | 0.25 mm | - | - | - |
| 1788069397 | 17.22° C | 73% | 1020.4 hPa | 0.25 mm | - | - | - |
| 1788069096 | 17.78° C | 71% | 1020.1 hPa | 0.51 mm | - | - | - |
| 1788068796 | 17.78° C | 64% | 1020.1 hPa | 1.02 mm | - | - | - |
| 1788068496 | 17.22° C | 64% | 1020.2 hPa | 1.02 mm | - | - | - |
| 1788068196 | 17.22° C | 64% | 1020.4 hPa | 1.52 mm | - | - | - |
| 1788067897 | 16.67° C | 65% | 1020.2 hPa | 1.78 mm | - | - | - |
| 1788067596 | 16.11° C | 69% | 1020 hPa | 2.03 mm | - | - | - |
| 1788067296 | 15.56° C | 71% | 1019.9 hPa | 2.03 mm | - | - | - |
| 1788066996 | 15.56° C | 73% | 1020 hPa | 2.29 mm | - | - | - |
| 1788066696 | 15° C | 76% | 1019.9 hPa | 2.29 mm | - | - | - |
| 1788066396 | 15° C | 77% | 1020.7 hPa | 2.29 mm | - | - | - |
| 1788066096 | 15.56° C | 76% | 1021.2 hPa | 2.29 mm | - | - | - |
* Rain latest hour (hover to see other rain measurements)
** Current wind speed in m/s (hover to see current wind gust speed)